If you wish to contribute or participate in the discussions about articles you are invited to join SKYbrary as a registered user

 Actions

Cambridge Airport

From SKYbrary Wiki

EGSC
Airport
ICAO: EGSC – IATA: CBG
Summary
Name Cambridge Airport
Region Europe
Territory United Kingdom GB.gif
Location Cambridge, England
Serving Cambridge
Elevation 14.326 m
47 ft
47 ft14.326 m
Coordinates 52° 12' 24.94" N, 0° 10' 24.80" E
Runways
Designator Length Width Surface ROPS
5/23 1965 m6,446.85 ft
46 m150.919 ft
ASP yes/yes
05R/23L 899 m2,949.475 ft
35 m114.829 ft
GRS /
10/28 699 m2,293.307 ft
35 m114.829 ft
GRS /


METAR
Observation EGSC 231420Z 22006KT 9999 FEW020 SCT040 09/05 Q1025
Station Cambridge
Date/Time 23 November 2020 14:20:00
Wind direction 220°
Wind speed 06 kts
Lowest cloud amount few clouds
Temperature 9°C
Dew point 5°C
Humidity 76%
QNH 1025 hPa
Weather condition n/a

Cambridge Airport

ICAO: EGSC IATA: CBG

Description

International airport serving the university city of Cambridge, UK.

Climatology

Temperate Marine climate/Oceanic climate (Köppen climate classification Cfb). Moderately cool summer and comparatively warm winter with a temperature range of only 14°C57.2 °F
287.15 K
516.87 °R
. Prevailing south-westerly winds from the Atlantic Ocean.

Maps

Terrain

Loading map...

Airport Layout

Loading map...


Accidents & Serious Incidents at or in vicinity of EGSC

None on SKYbrary